Regional Weather Roundup
Issued by NWS

Home | Current Version | Previous Version | Text Only | Print | Product List | Glossary On
Versions: 1 2 3 4 5 6 7 8 9 10 11 12 13 14 15 16 17 18 19 20 21 22 23 24 25 26 27 28 29 30 31 32 33 34 35 36 37 38 39 40 41 42 43 44 45 46 47 48 49 50
000
ASUS43 KTOP 171908
RWRKS

WEATHER ROUNDUP FOR KANSAS
NATIONAL WEATHER SERVICE GOODLAND KS
200 PM CDT TUE OCT 17 2017

NOTE:  "FAIR" INDICATES FEW OR NO CLOUDS BELOW 12,000 FEET WITH NO
SIGNIFICANT WEATHER AND/OR OBSTRUCTIONS TO VISIBILITY.

KSZ001>006-013>018-027>032-041>047-172000-
NORTHWEST KANSAS

CITY           SKY/WX    TMP DP  RH WIND       PRES   REMARKS
GOODLAND       SUNNY     77  23  13 VRB6      30.12F
HAYS           SUNNY     78  38  23 VRB3      30.08F
HILL CITY        N/A    N/A N/A N/A MISG      30.08F
RUSSELL        SUNNY     75  43  31 SW8       30.06F
$$

KSZ061>065-074>080-084>089-172000-
SOUTHWEST KANSAS

CITY           SKY/WX    TMP DP  RH WIND       PRES   REMARKS
DODGE CITY     SUNNY     78  38  23 S9        30.10F
ELKHART          N/A     74  43  33 E7          N/A
GARDEN CITY    SUNNY     78  40  25 SE10      30.10F
GREAT BEND     SUNNY     75  47  36 S12       30.08F
LIBERAL        SUNNY     73  43  33 SE13      30.10F
PRATT          SUNNY     74  39  28 S12G17    30.11F
$$

KSZ066>073-081>083-090>101-172000-
SOUTHEAST KANSAS

CITY           SKY/WX    TMP DP  RH WIND       PRES   REMARKS
CHANUTE        LGT RAIN  69  47  45 S20G25    30.18F
COFFEYVILLE    SUNNY     69  47  45 S14G21    30.20F
HUTCHINSON     SUNNY     74  45  35 S15       30.11F
NEWTON         SUNNY     70  45  40 S21       30.12F
PARSONS        SUNNY     69  46  43 S15G21    30.21F
WICHITA INTL   SUNNY     72  45  37 S16       30.13F
WICHITA JABRA  SUNNY     71  45  39 S18G26    30.13F
WICHITA MCCONL SUNNY     72  43  35 SW20      30.14F
WINFIELD       SUNNY     71  45  39 SW18G24   30.17F
$$

KSZ007>012-019>026-033>040-048>060-102>105-172000-
NORTHEAST KANSAS

CITY           SKY/WX    TMP DP  RH WIND       PRES   REMARKS
CONCORDIA      SUNNY     69  45  41 S9        30.07F
EMPORIA        SUNNY     73  43  33 S18G30    30.12F
LAWRENCE       SUNNY     72  46  39 S15G23    30.12F
MANHATTAN      SUNNY     73  46  38 S17       30.08F
MARYSVILLE     SUNNY     70  46  43 S6        30.07F
OLATHE IND     SUNNY     69  46  43 S18G24    30.15F
OLATHE EXE     SUNNY     68  44  42 S17G24    30.15F
SALINA         SUNNY     74  48  39 S12       30.08F
TOPEKA BILLARD SUNNY     73  45  36 S14       30.10F
TOPEKA FORBES  SUNNY     74  45  35 S17G24    30.11F
$$



USA.gov is the U.S. government's official web portal to all federal, state and local government web resources and services.